Weather in Little Rock

United States     34°43′51″N   92°18′03″W
В апреле 2022 года жителям России запретили посещать сайт meteo.paraplan.net по решению Генеральной прокуратуры. Аудитория сайта уменьшилась в 10 раз. Владельцы сайта не видят смысла в поддержке погодного сервера в таких условиях. Сайт будет закрыт в октябре.
temp.,
°C
wind,
m/s
gust,
m/s
humid.,
%
clouds,
%
prec.,
mm/h
press.,
hPa
HPBL,
m
4 october, tue
tue401:00+14ne25320 0.0 1021112
04:00+13ne24440 0.0 102089
07:00+12nne23500 0.0 102169
10:00+19ne23410 0.0 1022434
13:00+25ne23300 0.0 10201388
16:00+27ne23220 0.0 10171862
19:00+21nne22333 0.0 101812
22:00+17nne22380 0.0 101941
5 october, wed
wed501:00+15ne11420 0.0 101920
04:00+14n22460 0.0 101923
07:00+12ne12460 0.0 102030
10:00+21ne12275 0.0 1021336
13:00+28n11190 0.0 10191255
16:00+29n22170 0.0 10171770
19:00+22wnw11273 0.0 101711
22:00+20s11305 0.0 101811
6 october, thu
thu601:00+18sw22330 0.0 101823
04:00+17wsw23384 0.0 101852
07:00+16w11425 0.0 101918
10:00+24wnw24305 0.0 1020353
13:00+31w35235 0.0 10191662
16:00+32nw46210 0.0 10172714
19:00+26wnw22320 0.0 101715
22:00+22n23380 0.0 101943
7 october, fri
fri701:00+20nnw22420 0.0 102032
04:00+18nw22470 0.0 102019
07:00+17n24525 0.0 102282
10:00+22nne46405 0.0 1025602
13:00+27nne443159 0.0 10231234
16:00+29nne3428100 0.0 10211944
19:00+23nne374082 0.0 1022212
22:00+20ne411415 0.0 1024414
8 october, sat
sat801:00+16ne412390 0.0 1025401
04:00+13ne411370 0.0 1026330
07:00+11ne38450 0.0 1028211
10:00+17ne35330 0.0 1029534
13:00+23ne23230 0.0 10271080
16:00+25ne222299 0.0 10241321
19:00+20ene1131100 0.0 102411
22:00+17ese223269 0.0 102432